Regional Weather Roundup
Issued by NWS Midland/Odessa, TX

Skip options and go directly to product.
Home | Oldest Version | Previous Version | Current Version | All | Graphics & Text | Save Text | Print | Product List | Glossary On

Skip product version selection by date and time.   
581
ASUS44 KMAF 251610
RWRMAF
MIDLAND AREA WEATHER ROUNDUP
NATIONAL WEATHER SERVICE MIDLAND TX
1100 AM CDT FRI JUL 25 2014

...IN SOUTHWEST TEXAS AND SOUTHEAST NEW MEXICO...

CITY           SKY/WX    TMP DP  RH WIND       PRES   REMARKS
ALPINE         SUNNY     82  55  38 N3        30.25S
ANDREWS        FAIR      86  61  41 SW8       30.12S
ARTESIA        SUNNY     86  54  32 S7        30.10F
BIG SPRING     SUNNY     87  61  41 S6        30.12S
CARLSBAD       SUNNY     90  54  29 SE12G18   30.09S
DRYDEN           N/A     89  65  44 E9        30.06F
FORT STOCKTON  SUNNY     88  58  36 S9        30.11S
GUAD PASS      SUNNY     81  54  39 SW13      30.27S
HOBBS          SUNNY     86  57  37 S10       30.14F
MARFA          SUNNY     79  57  47 S5        30.25F
MIDLAND AIRPK  SUNNY     88  61  40 S8        30.10S
MIDLAND INTL   SUNNY     87  63  44 S10       30.10S
ODESSA         SUNNY     85  62  46 MISG      30.11S
PECOS          SUNNY     86  57  36 CALM      30.07S
PRESIDIO       FAIR      86  57  37 CALM      30.09F
SEMINOLE       SUNNY     88  58  36 SW7       30.13S HAZE
SNYDER         SUNNY     86  64  48 S10       30.09F
WINK           SUNNY     88  61  40 SE10      30.07F
$$
...OTHER STATIONS IN TEXAS...

CITY           SKY/WX    TMP DP  RH WIND       PRES   REMARKS
ABILENE        SUNNY     87  66  49 SW12      30.07F
AMARILLO       SUNNY     88  61  40 SW23G30   30.07F
AUSTIN         MOSUNNY   86  72  62 VRB7      30.05S
BROWNSVILLE    SUNNY     91  73  55 S17G24    30.02S
CORPUS CHRISTI MOSUNNY   92  71  50 S13       30.01F
DALLAS FTW     MOSUNNY   91  70  49 S10       30.01S
DEL RIO        SUNNY     87  71  58 SE8       30.03R
EL PASO        SUNNY     85  52  32 S9        30.14S
HOUSTON INT    PTSUNNY   86  72  62 VRB5      30.05S
LUBBOCK        SUNNY     88  61  40 SW16      30.10F
SAN ANGELO     SUNNY     88  65  46 S9        30.08S
SAN ANTONIO    MOSUNNY   84  73  69 VRB3      30.06F
WACO           SUNNY     90  69  50 SW10      30.03S
WICHITA FALLS  NOT AVBL
$$
...OTHER LOCATIONS IN NEW MEXICO...

CITY           SKY/WX    TMP DP  RH WIND       PRES   REMARKS
ALAMAGORDO     SUNNY     88  46  23 SW6       30.17S
ALBUQUERQUE    SUNNY     82  42  24 S14       30.23F
CANNON AFB     SUNNY     85  58  40 SW15      30.15S
CLOVIS         SUNNY     84  59  42 SW16G22   30.16F
HOLLOMAN AFB   SUNNY     90  49  24 VRB6      30.15F
ROSWELL        SUNNY     89  52  28 S13       30.09F
RUIDOSO        SUNNY     79  46  31 MISG      30.36F
SANTA FE       SUNNY     78  42  27 SW10      30.28F
TRUTH OR CONSE SUNNY     85  46  25 S9        30.20F
TUCUMCARI      SUNNY     90  53  28 SW18G29   30.07F
$$

USA.gov is the U.S. government's official web portal to all federal, state and local government web resources and services.